{"data":{"norad_id":52666,"intl_designator":"2022-053L","name":"STARLINK-4079","alt_names":[],"object_type":"PAYLOAD","status":"ACTIVE","operator":null,"country":"US","launch_date":"2022-05-18","launch_site_code":"AFETR","launch_vehicle":null,"mission":null,"orbit_class":"UNKNOWN","rcs_meters":null,"size_class":null,"mass_kg":null,"dimensions":null,"purposes":["comms"],"wikipedia_slug":null,"has_3d_model":false,"image_url":null,"decayed_at":null,"tle_current":{"epoch":"2026-05-25T01:45:36.790272Z","epoch_age_seconds":65942,"freshness":"FRESH","line1":"1 52666U 22053L   26145.07334248 -.00000558  00000+0 -16973-4 0  9995","line2":"2 52666  53.2139 170.8338 0001002  77.4642 282.6463 15.08837671222589","mean_motion":15.08837671,"eccentricity":0.0001002,"inclination_deg":53.2139,"raan_deg":170.8338,"arg_perigee_deg":77.4642,"mean_anomaly_deg":282.6463,"bstar":-1.6973e-5,"rev_number":22258,"period_min":95.437701992529,"perigee_km":539.05733546625,"apogee_km":540.44368012281,"semimajor_km":6917.8875077945,"source":"CELESTRAK","updated_at":"2026-05-25T13:38:17.231316Z"}}}